Orbital Elements at Epoch 2459200.5 (2020-Dec-17.0) TDB
Reference: JPL 12 (heliocentric ecliptic J2000)
Element | Value | Uncertainty (1-sigma) | Units |
e | .07518502819435391 | 5.5091e-08 | |
a | 3.074451112283713 | 3.5608e-08 | au |
q | 2.843298418724499 | 1.6459e-07 | au |
i | 3.061616283646897 | 6.1226e-06 | deg |
node | 101.4686464407453 | 0.00012305 | deg |
peri | 39.66859349245613 | 0.00013217 | deg |
M | 188.19572556977 | 5.071e-05 | deg |
tp | 2460140.182801386335 (2023-Jul-14.68280139) | 0.00028443 | TDB |
period | 1969.018580131188 5.39 | 3.4208e-05 9.366e-08 | d yr |
n | .182832200585946 | 3.1763e-09 | deg/d |
Q | 3.305603805842926 | 3.8285e-08 | au |
|
| | Orbit Determination Parameters
Additional Information
|